Weather History for Burbank, CA

Change the Weather History Date:

Wednesday, February 13, 2013

  Actual Average Record
Temperature  
Mean Temperature 42 °F 56 °F  
Max Temperature 73 °F 68 °F 88 °F (1943)
Min Temperature 11 °F 44 °F 11 °F (2013)
Degree Days  
Heating Degree Days 23 9  
Month to date heating degree days 148 127  
Since 1 July heating degree days 927 1010  
Cooling Degree Days 0 0  
Month to date cooling degree days 2 0  
Year to date cooling degree days 2 2  
Growing Degree Days 6 (Base 50)    
Moisture  
Dew Point 29 °F    
Average Humidity 40    
Maximum Humidity 64    
Minimum Humidity 16    
Precipitation  
Precipitation 0.00 in 0.16 in 2.17 in (1954)
Month to date precipitation 0.09 1.95  
Year to date precipitation 0.86 5.48  
Since 1 July precipitation 3.66 10.24  
Sea Level Pressure  
Sea Level Pressure 30.17 in    
Wind  
Wind Speed 3 mph (South)    
Max Wind Speed 12 mph    
Max Gust Speed 14 mph    
Visibility 10 miles    
Events      
T = Trace of Precipitation, MM = Missing Value Source: NWS Daily Summary

Daily Weather History Graph

Daily Weather History Graph

Search for Another Location

Airport:

Trip Planner

Search our weather history database for the weather conditions in past years. The results will help you decide how hot, cold, wet, or windy it might be!

Date:

Astronomy

Feb. 13, 2013 Rise Set
Actual Time 6:40 AM PST 5:35 PM PST
Civil Twilight 6:14 AM PST 6:01 PM PST
Nautical Twilight 5:44 AM PST 6:30 PM PST
Astronomical Twilight 5:15 AM PST 7:00 PM PST
Moon 8:24 AM PST (2/13) 9:29 PM PST (2/13)
Length of Visible Light 11h 47m
Length of Day
10h 55m
Waxing Crescent, 14% of the Moon is Illuminated
Feb 13
Waxing Crescent
Feb 17
First Quarter
Feb 25
Full
Mar 4
Last Quarter
Mar 11
New

Hourly Weather History & Observations

Time (PST) Temp. Windchill Dew Point Humidity Pressure Visibility Wind Dir Wind Speed Gust Speed Precip Events Conditions
12:53 AM 42.8 °F - 28.9 °F 58% 30.23 in 10.0 mi Calm Calm - N/A   Clear
1:53 AM 42.8 °F - 28.0 °F 56% 30.21 in 10.0 mi Calm Calm - N/A   Clear
2:53 AM 42.8 °F - 27.0 °F 54% 30.21 in 10.0 mi Calm Calm - N/A   Clear
3:53 AM 54.0 °F - 28.0 °F 37% 30.19 in 10.0 mi Calm Calm - N/A   Clear
4:53 AM 43.0 °F - 28.0 °F 56% 30.20 in 10.0 mi Calm Calm - N/A   Clear
5:53 AM 51.1 °F - 27.0 °F 39% 30.20 in 10.0 mi WSW 3.5 mph - N/A   Clear
6:53 AM 39.2 °F - 28.0 °F 64% 30.22 in 10.0 mi Calm Calm - N/A   Clear
7:53 AM 44.6 °F 43.1 °F 28.9 °F 54% 30.23 in 10.0 mi North 3.5 mph - N/A   Clear
8:53 AM 73.0 °F - 28.0 °F 19% 30.23 in 10.0 mi Calm Calm - N/A   Clear
8:57 AM 51.8 °F - 28.4 °F 41% 30.25 in 10.0 mi Calm Calm - N/A   Clear
9:53 AM 57.2 °F - 28.4 °F 33% 30.23 in 10.0 mi Calm Calm - N/A   Clear
10:53 AM 64.0 °F - 27.0 °F 25% 30.22 in 10.0 mi SE 4.6 mph - N/A   Clear
11:53 AM 66.9 °F - 27.0 °F 22% 30.19 in 10.0 mi South 3.5 mph - N/A   Clear
12:53 PM 70.0 °F - 24.1 °F 18% 30.15 in 10.0 mi SSE 8.1 mph - N/A   Clear
1:53 PM 71.1 °F - 23.0 °F 16% 30.13 in 10.0 mi SSW 4.6 mph - N/A   Clear
2:53 PM 70.0 °F - 26.1 °F 19% 30.11 in 10.0 mi South 11.5 mph - N/A   Clear
3:53 PM 68.0 °F - 28.9 °F 23% 30.11 in 10.0 mi South 8.1 mph - N/A   Clear
4:53 PM 64.9 °F - 30.9 °F 28% 30.11 in 10.0 mi South 8.1 mph - N/A   Clear
5:53 PM 62.1 °F - 30.9 °F 31% 30.12 in 10.0 mi South 3.5 mph - N/A   Clear
6:53 PM 60.1 °F - 35.1 °F 39% 30.12 in 10.0 mi Calm Calm - N/A   Clear
7:53 PM 57.0 °F - 36.0 °F 45% 30.13 in 10.0 mi Calm Calm - N/A   Clear
8:53 PM 54.0 °F - 28.9 °F 38% 30.13 in 10.0 mi NNW 3.5 mph - N/A   Clear
9:53 PM 53.1 °F - 28.9 °F 40% 30.14 in 10.0 mi Calm Calm - N/A   Clear
10:53 PM 51.1 °F - 28.9 °F 43% 30.14 in 10.0 mi Calm Calm - N/A   Clear
11:53 PM 48.9 °F - 28.9 °F 46% 30.14 in 10.0 mi Calm Calm - N/A   Clear